INTELSAT 10 (IS-10)

Last updated on May 21, 2019, 3:10 a.m. UTC

1 26766U 01019A   19140.17588660  .00000115  00000-0  00000+0 0  9990
2 26766   3.0174  81.4780 0003621 356.1359 270.7220  1.00270781 66004
UTC
Height (km)
Latitude
Longitude
Inclination
Orbital Period
UTC large
Height (km)
Speed (km/s)
/
Latitude / Longitude
Inclination (degrees)
Orbital Period (minutes)
Azimuth
Elevation
Range (km)
Doppler Factor
iOS Compass Heading
iOS Angle

Next 30 passes for location: Hong Kong

Rise time Rise Azimuth (degrees) Set time Set Azimuth (degrees) Duration Max altitude (degrees)

No matching passes for this satellites